N750GK KMRY-KVNY

Flight info

Callsign N750GK
Flight time 0h 39m
Altitude 29000
Route MRY SERFR RDHOT IVINS2
Aircraft C750/M-VGDW/C

Departure

Time 2026-04-23 04:01
Airport Monterey Regional Airport (KMRY)

Arrival

Time 2026-04-23 04:40
Airport Van Nuys Airport (KVNY)
Time Latitude Longitude Altitude Speed Heading
2026-04-23 03:55 36.58892 -121.85418 206 ft 0 kts 293°
2026-04-23 03:58 36.58912 -121.85427 210 ft 5 kts 14°
2026-04-23 03:58 36.58930 -121.85372 205 ft 10 kts 93°
2026-04-23 03:59 36.58904 -121.85281 205 ft 15 kts 113°
2026-04-23 03:59 36.58853 -121.85129 212 ft 23 kts 112°
2026-04-23 03:59 36.58784 -121.84926 212 ft 26 kts 112°
2026-04-23 03:59 36.58718 -121.84730 210 ft 18 kts 112°
2026-04-23 04:00 36.58687 -121.84627 210 ft 10 kts 89°
2026-04-23 04:00 36.58735 -121.84588 212 ft 9 kts
2026-04-23 04:00 36.58787 -121.84693 208 ft 44 kts 292°
2026-04-23 04:00 36.59059 -121.85500 235 ft 139 kts 292°
2026-04-23 04:01 36.59442 -121.86629 912 ft 144 kts 292°
2026-04-23 04:01 36.59824 -121.87783 1750 ft 144 kts 293°
2026-04-23 04:01 36.59825 -121.89022 2324 ft 161 kts 242°
2026-04-23 04:01 36.58827 -121.89704 2945 ft 178 kts 178°
2026-04-23 04:02 36.57666 -121.89192 3786 ft 180 kts 148°
2026-04-23 04:02 36.56656 -121.88205 4630 ft 191 kts 138°
2026-04-23 04:02 36.55602 -121.87109 5369 ft 209 kts 139°
2026-04-23 04:02 36.54430 -121.85889 6015 ft 231 kts 138°
2026-04-23 04:03 36.53133 -121.84528 6600 ft 256 kts 138°
2026-04-23 04:03 36.51702 -121.83028 7175 ft 280 kts 139°
2026-04-23 04:03 36.50195 -121.81455 8204 ft 285 kts 140°
2026-04-23 04:03 36.48662 -121.79856 9302 ft 291 kts 140°
2026-04-23 04:04 36.47086 -121.78209 10255 ft 301 kts 140°
2026-04-23 04:04 36.45433 -121.76484 10753 ft 322 kts 141°
2026-04-23 04:04 36.43639 -121.74613 10923 ft 350 kts 141°
2026-04-23 04:04 36.41706 -121.72599 11217 ft 370 kts 141°
2026-04-23 04:05 36.39726 -121.70536 12004 ft 373 kts 141°
2026-04-23 04:05 36.37718 -121.68443 12700 ft 380 kts 141°
2026-04-23 04:05 36.35680 -121.66310 13347 ft 386 kts 142°
2026-04-23 04:05 36.33626 -121.64186 14012 ft 391 kts 142°
2026-04-23 04:06 36.31515 -121.62010 14658 ft 396 kts 142°
2026-04-23 04:06 36.29399 -121.59809 15310 ft 399 kts 142°
2026-04-23 04:06 36.27252 -121.57583 15909 ft 405 kts 142°
2026-04-23 04:06 36.25084 -121.55315 16554 ft 410 kts 142°
2026-04-23 04:07 36.22881 -121.53028 17180 ft 414 kts 143°
2026-04-23 04:07 36.20653 -121.50732 17889 ft 419 kts 143°
2026-04-23 04:07 36.18406 -121.48415 18632 ft 423 kts 143°
2026-04-23 04:07 36.16128 -121.46066 19179 ft 428 kts 143°
2026-04-23 04:08 36.13853 -121.43718 19829 ft 432 kts 143°
2026-04-23 04:08 36.11533 -121.41307 20452 ft 439 kts 144°
2026-04-23 04:08 36.09175 -121.38870 21084 ft 444 kts 144°
2026-04-23 04:08 36.06975 -121.36123 21638 ft 456 kts 133°
2026-04-23 04:09 36.05143 -121.32869 22216 ft 466 kts 123°
2026-04-23 04:09 36.03514 -121.29360 22823 ft 472 kts 122°
2026-04-23 04:09 36.01863 -121.25815 23435 ft 478 kts 123°
2026-04-23 04:09 36.00183 -121.22253 24037 ft 482 kts 123°
2026-04-23 04:10 35.98512 -121.18700 24578 ft 486 kts 123°
2026-04-23 04:10 35.96811 -121.15065 25071 ft 491 kts 123°
2026-04-23 04:10 35.95093 -121.11396 25589 ft 496 kts 123°
2026-04-23 04:10 35.93351 -121.07699 26014 ft 502 kts 124°
2026-04-23 04:11 35.91580 -121.03946 26488 ft 507 kts 124°
2026-04-23 04:11 35.89797 -121.00160 27037 ft 511 kts 124°
2026-04-23 04:11 35.88006 -120.96359 27556 ft 515 kts 124°
2026-04-23 04:11 35.86805 -120.93815 27937 ft 518 kts 124°
2026-04-23 04:12 35.84981 -120.89961 28426 ft 522 kts 124°
2026-04-23 04:12 35.82541 -120.84810 29104 ft 528 kts 124°
2026-04-23 04:12 35.80667 -120.80857 29155 ft 541 kts 124°
2026-04-23 04:12 35.79372 -120.78131 29196 ft 549 kts 124°
2026-04-23 04:13 35.77439 -120.74065 29204 ft 562 kts 124°
2026-04-23 04:13 35.75444 -120.69867 29210 ft 574 kts 124°
2026-04-23 04:13 35.71365 -120.61294 29211 ft 583 kts 124°
2026-04-23 04:14 35.67238 -120.52659 29208 ft 586 kts 124°
2026-04-23 04:14 35.63115 -120.44043 29192 ft 584 kts 124°
2026-04-23 04:15 35.58562 -120.35846 29181 ft 576 kts 136°
2026-04-23 04:16 35.49724 -120.26071 29172 ft 567 kts 145°
2026-04-23 04:16 35.43764 -120.19833 29180 ft 566 kts 146°
2026-04-23 04:17 35.37742 -120.13598 29174 ft 566 kts 146°
2026-04-23 04:17 35.34765 -120.10495 29146 ft 547 kts 146°
2026-04-23 04:17 35.31977 -120.07568 29157 ft 509 kts 146°
2026-04-23 04:17 35.29358 -120.04856 29149 ft 480 kts 147°
2026-04-23 04:18 35.26789 -120.02244 29151 ft 481 kts 147°
2026-04-23 04:18 35.21714 -119.96990 29150 ft 480 kts 147°
2026-04-23 04:19 35.16605 -119.91713 28502 ft 477 kts 147°
2026-04-23 04:19 35.14086 -119.89124 27948 ft 470 kts 147°
2026-04-23 04:19 35.11591 -119.86553 27384 ft 469 kts 146°
2026-04-23 04:19 35.09107 -119.83992 26823 ft 465 kts 146°
2026-04-23 04:20 35.06642 -119.81459 26264 ft 462 kts 147°
2026-04-23 04:20 35.04183 -119.78933 25697 ft 459 kts 146°
2026-04-23 04:20 35.01744 -119.76426 25153 ft 457 kts 146°
2026-04-23 04:20 34.99313 -119.73938 24595 ft 452 kts 146°
2026-04-23 04:21 34.96939 -119.71508 24063 ft 449 kts 146°
2026-04-23 04:21 34.94555 -119.69064 23493 ft 446 kts 146°
2026-04-23 04:21 34.92193 -119.66645 22941 ft 440 kts 145°
2026-04-23 04:21 34.89853 -119.64253 22397 ft 436 kts 145°
2026-04-23 04:22 34.87577 -119.61825 21858 ft 436 kts 140°
2026-04-23 04:22 34.85603 -119.59028 21350 ft 434 kts 133°
2026-04-23 04:22 34.83711 -119.56177 20839 ft 430 kts 133°
2026-04-23 04:22 34.81818 -119.53383 20325 ft 426 kts 134°
2026-04-23 04:23 34.79943 -119.50595 19802 ft 423 kts 133°
2026-04-23 04:23 34.78099 -119.47861 19220 ft 419 kts 133°
2026-04-23 04:23 34.76263 -119.45132 18711 ft 415 kts 133°
2026-04-23 04:23 34.74504 -119.42376 18192 ft 411 kts 131°
2026-04-23 04:24 34.72741 -119.39665 17682 ft 406 kts 133°
2026-04-23 04:24 34.70954 -119.36995 17193 ft 404 kts 133°
2026-04-23 04:24 34.69203 -119.34337 16710 ft 402 kts 132°
2026-04-23 04:24 34.67484 -119.31680 16235 ft 397 kts 131°
2026-04-23 04:25 34.65784 -119.29055 15727 ft 392 kts 131°
2026-04-23 04:25 34.64158 -119.26480 15310 ft 380 kts 128°
2026-04-23 04:25 34.62762 -119.23759 14888 ft 379 kts 123°
2026-04-23 04:25 34.61423 -119.21010 14450 ft 377 kts 123°
2026-04-23 04:26 34.60093 -119.18283 13984 ft 375 kts 122°
2026-04-23 04:26 34.58763 -119.15580 13513 ft 371 kts 123°
2026-04-23 04:26 34.57455 -119.12946 13082 ft 367 kts 122°
2026-04-23 04:26 34.56419 -119.10170 12586 ft 353 kts 110°
2026-04-23 04:27 34.55623 -119.07406 12252 ft 341 kts 110°
2026-04-23 04:27 34.54467 -119.04938 11791 ft 335 kts 134°
2026-04-23 04:27 34.52711 -119.03175 11455 ft 324 kts 149°
2026-04-23 04:28 34.48967 -119.00197 10740 ft 319 kts 150°
2026-04-23 04:28 34.47135 -118.98689 10374 ft 318 kts 149°
2026-04-23 04:28 34.45347 -118.97202 9933 ft 316 kts 149°
2026-04-23 04:28 34.43538 -118.95732 9602 ft 310 kts 149°
2026-04-23 04:29 34.41746 -118.94289 9232 ft 309 kts 150°
2026-04-23 04:29 34.39965 -118.92826 8859 ft 309 kts 146°
2026-04-23 04:29 34.38597 -118.90835 8428 ft 309 kts 118°
2026-04-23 04:29 34.38016 -118.88380 8086 ft 300 kts 93°
2026-04-23 04:30 34.38249 -118.85912 7757 ft 294 kts 73°
2026-04-23 04:30 34.38777 -118.83531 7448 ft 292 kts 72°
2026-04-23 04:30 34.39312 -118.81170 7110 ft 289 kts 72°
2026-04-23 04:30 34.39954 -118.78893 7010 ft 287 kts 67°
2026-04-23 04:31 34.40547 -118.76728 6983 ft 253 kts 69°
2026-04-23 04:31 34.41071 -118.74756 6979 ft 246 kts 68°
2026-04-23 04:31 34.41625 -118.72807 6985 ft 245 kts 68°
2026-04-23 04:31 34.42180 -118.70867 6982 ft 244 kts 68°
2026-04-23 04:32 34.42731 -118.68915 6940 ft 244 kts 68°
2026-04-23 04:32 34.43275 -118.66975 6789 ft 243 kts 68°
2026-04-23 04:32 34.43821 -118.65035 6615 ft 252 kts 65°
2026-04-23 04:32 34.44373 -118.63064 6394 ft 238 kts 65°
2026-04-23 04:33 34.44875 -118.61247 6170 ft 216 kts 65°
2026-04-23 04:33 34.45350 -118.59574 5982 ft 204 kts 64°
2026-04-23 04:33 34.45895 -118.58048 5979 ft 197 kts 59°
2026-04-23 04:33 34.46404 -118.56489 5988 ft 199 kts 61°
2026-04-23 04:34 34.46879 -118.54897 5975 ft 203 kts 69°
2026-04-23 04:34 34.46735 -118.53176 5955 ft 211 kts 110°
2026-04-23 04:34 34.45825 -118.51777 5771 ft 216 kts 148°
2026-04-23 04:34 34.44454 -118.51257 5511 ft 200 kts 180°
2026-04-23 04:35 34.43076 -118.51140 5310 ft 199 kts 181°
2026-04-23 04:35 34.41709 -118.51014 5057 ft 193 kts 176°
2026-04-23 04:35 34.40398 -118.50889 4807 ft 191 kts 176°
2026-04-23 04:35 34.39081 -118.50763 4560 ft 189 kts 176°
2026-04-23 04:36 34.37773 -118.50639 4318 ft 188 kts 175°
2026-04-23 04:36 34.36471 -118.50515 4084 ft 187 kts 176°
2026-04-23 04:36 34.35175 -118.50391 3891 ft 185 kts 175°
2026-04-23 04:36 34.33928 -118.50273 3616 ft 167 kts 175°
2026-04-23 04:37 34.32851 -118.50171 3371 ft 145 kts 175°
2026-04-23 04:37 34.31876 -118.50079 3161 ft 139 kts 175°
2026-04-23 04:37 34.30921 -118.49988 2956 ft 137 kts 175°
2026-04-23 04:37 34.29971 -118.49897 2743 ft 137 kts 175°
2026-04-23 04:38 34.29023 -118.49807 2531 ft 137 kts 176°
2026-04-23 04:38 34.28077 -118.49717 2337 ft 135 kts 176°
2026-04-23 04:38 34.27146 -118.49626 2124 ft 133 kts 176°
2026-04-23 04:38 34.26239 -118.49544 1923 ft 132 kts 177°
2026-04-23 04:39 34.25325 -118.49452 1705 ft 132 kts 175°
2026-04-23 04:39 34.24417 -118.49359 1483 ft 130 kts 177°
2026-04-23 04:39 34.23525 -118.49281 1294 ft 127 kts 177°
2026-04-23 04:39 34.22648 -118.49200 1087 ft 126 kts 177°
2026-04-23 04:40 34.21770 -118.49114 851 ft 125 kts 177°
2026-04-23 04:40 34.20950 -118.49037 789 ft 101 kts 175°
2026-04-23 04:40 34.20467 -118.48992 771 ft 42 kts 176°
2026-04-23 04:40 34.20294 -118.48969 765 ft 15 kts 153°
2026-04-23 04:41 34.20273 -118.48902 765 ft 6 kts 85°
2026-04-23 04:41 34.20275 -118.48877 765 ft 0 kts 86°
2026-04-23 04:42 34.20275 -118.48876 765 ft 0 kts 86°
2026-04-23 04:42 34.20275 -118.48875 765 ft 1 kts 86°